Mora, MN

7:38 PM CST on December 07, 2016 (GMT -0600)
Mora Municipal

Weather History for KJMR - November, 2012

Change the Weather History Date:

Friday, November 2, 2012

  Actual Average Record
Temperature  
Mean Temperature 27 °F -  
Max Temperature 37 °F 47 °F 72 °F (1978)
Min Temperature 17 °F 27 °F -4 °F (1984)
Degree Days  
Heating Degree Days 38    
Moisture  
Dew Point 22 °F    
Average Humidity 71    
Maximum Humidity 93    
Minimum Humidity 52    
Precipitation  
Precipitation 0.00 in - - ()
Sea Level Pressure  
Sea Level Pressure 30.14 in    
Wind  
Wind Speed 1 mph (NE)    
Max Wind Speed 6 mph    
Max Gust Speed -    
Visibility 10 miles    
Events      
Averages and records for this station are not official NWS values.
T = Trace of Precipitation, MM = Missing Value Source: NWS Daily Summary

Daily Weather History Graph

Daily Weather History Graph

Search for Another Location

Airport or City:

Trip Planner

Search our weather history database for the weather conditions in past years. The results will help you decide how hot, cold, wet, or windy it might be!

Date:

Astronomy

Nov. 02, 2012 Rise Set
Actual Time 7:55 AM CDT 5:57 PM CDT
Civil Twilight 7:24 AM CDT 6:28 PM CDT
Nautical Twilight 6:48 AM CDT 7:03 PM CDT
Astronomical Twilight 6:14 AM CDT 7:38 PM CDT
Moon 8:38 PM CDT (11/2) 11:23 AM CDT (11/2)
Length of Visible Light 11h 04m
Length of Day
10h 01m
Waning Gibbous, 87% of the Moon is Illuminated
Nov 2
Waning Gibbous
Nov 6
Last Quarter
Nov 13
New
Nov 20
First Quarter
Nov 28
Full

Hourly Weather History & Observations

Time (CDT) Temp. Windchill Dew Point Humidity Pressure Visibility Wind Dir Wind Speed Gust Speed Precip Events Conditions
12:01 AM 32.0 °F 28.7 °F 24.8 °F 75% 30.09 in 10.0 mi NNW 3.5 mph - N/A   Overcast
12:21 AM 32.0 °F - 24.8 °F 75% 30.09 in 10.0 mi Calm Calm - N/A   Overcast
12:41 AM 32.0 °F - 24.8 °F 75% 30.09 in 10.0 mi Calm Calm - N/A   Overcast
1:01 AM 32.0 °F 28.7 °F 24.8 °F 75% 30.09 in 10.0 mi NNE 3.5 mph - N/A   Overcast
1:21 AM 32.0 °F - 24.8 °F 75% 30.09 in 10.0 mi Calm Calm - N/A   Overcast
1:41 AM 32.0 °F - 24.8 °F 75% 30.10 in 10.0 mi Calm Calm - N/A   Overcast
2:01 AM 30.2 °F - 23.0 °F 75% 30.10 in 10.0 mi Calm Calm - N/A   Mostly Cloudy
2:21 AM 30.2 °F - 23.0 °F 75% 30.10 in 10.0 mi Calm Calm - N/A   Scattered Clouds
2:41 AM 28.4 °F - 23.0 °F 80% 30.10 in 10.0 mi Calm Calm - N/A   Clear
3:01 AM 26.6 °F - 23.0 °F 86% 30.11 in 10.0 mi Calm Calm - N/A   Clear
3:21 AM 26.6 °F - 23.0 °F 86% 30.11 in 10.0 mi Calm Calm - N/A   Clear
3:41 AM 26.6 °F - 23.0 °F 86% 30.10 in 10.0 mi Calm Calm - N/A   Clear
4:01 AM 26.6 °F - 23.0 °F 86% 30.10 in 10.0 mi Calm Calm - N/A   Clear
4:21 AM 26.6 °F 22.6 °F 23.0 °F 86% 30.11 in 10.0 mi West 3.5 mph - N/A   Clear
4:41 AM 26.6 °F - 23.0 °F 86% 30.10 in 10.0 mi Calm Calm - N/A   Clear
5:01 AM 26.6 °F - 23.0 °F 86% 30.10 in 10.0 mi Calm Calm - N/A   Clear
5:21 AM 24.8 °F - 21.2 °F 86% 30.11 in 10.0 mi Calm Calm - N/A   Clear
5:41 AM 24.8 °F - 21.2 °F 86% 30.12 in 10.0 mi Calm Calm - N/A   Clear
6:01 AM 23.0 °F - 21.2 °F 93% 30.13 in 10.0 mi Calm Calm - N/A   Clear
6:21 AM 21.2 °F - 19.4 °F 93% 30.13 in 10.0 mi Calm Calm - N/A   Clear
6:41 AM 19.4 °F - 17.6 °F 93% 30.12 in 10.0 mi Calm Calm - N/A   Clear
7:01 AM 19.4 °F - 17.6 °F 93% 30.13 in 10.0 mi Calm Calm - N/A   Clear
7:21 AM 19.4 °F - 17.6 °F 93% 30.13 in 10.0 mi Calm Calm - N/A   Clear
7:41 AM 19.4 °F - 17.6 °F 93% 30.14 in 10.0 mi Calm Calm - N/A   Clear
8:01 AM 17.6 °F - 15.8 °F 93% 30.14 in 10.0 mi Calm Calm - N/A   Clear
8:21 AM 19.4 °F - 15.8 °F 86% 30.14 in 10.0 mi Calm Calm - N/A   Clear
8:41 AM 19.4 °F - 17.6 °F 93% 30.15 in 10.0 mi Calm Calm - N/A   Clear
9:01 AM 26.6 °F - 24.8 °F 93% 30.16 in 10.0 mi Calm Calm - N/A   Clear
9:21 AM 26.6 °F - 23.0 °F 86% 30.16 in 10.0 mi Calm Calm - N/A   Clear
9:41 AM 30.2 °F 26.7 °F 24.8 °F 80% 30.16 in 10.0 mi NE 3.5 mph - N/A   Clear
10:01 AM 32.0 °F 27.5 °F 24.8 °F 75% 30.17 in 10.0 mi ENE 4.6 mph - N/A   Clear
10:21 AM 32.0 °F 28.7 °F 23.0 °F 69% 30.17 in 10.0 mi ENE 3.5 mph - N/A   Clear
10:41 AM 32.0 °F - 23.0 °F 69% 30.17 in 10.0 mi Calm Calm - N/A   Clear
11:01 AM 32.0 °F 27.5 °F 23.0 °F 69% 30.17 in 10.0 mi East 4.6 mph - N/A   Clear
11:21 AM 32.0 °F 28.7 °F 23.0 °F 69% 30.17 in 10.0 mi NE 3.5 mph - N/A   Clear
11:41 AM 33.8 °F - 24.8 °F 70% 30.17 in 10.0 mi Calm Calm - N/A   Clear
12:01 PM 33.8 °F - 23.0 °F 65% 30.17 in 10.0 mi Calm Calm - N/A   Clear
12:21 PM 33.8 °F - 23.0 °F 65% 30.17 in 10.0 mi Calm Calm - N/A   Clear
12:41 PM 35.6 °F - 24.8 °F 65% 30.17 in 10.0 mi Calm Calm - N/A   Clear
1:21 PM 35.6 °F - 23.0 °F 60% 30.16 in 10.0 mi Calm Calm - N/A   Clear
1:41 PM 35.6 °F - 23.0 °F 60% 30.15 in 10.0 mi Calm Calm - N/A   Clear
2:01 PM 37.4 °F - 23.0 °F 56% 30.15 in 10.0 mi Calm Calm - N/A   Clear
2:21 PM 37.4 °F - 21.2 °F 52% 30.15 in 10.0 mi Calm Calm - N/A   Clear
2:41 PM 37.4 °F - 21.2 °F 52% 30.15 in 10.0 mi Calm Calm - N/A   Clear
3:01 PM 37.4 °F - 21.2 °F 52% 30.14 in 10.0 mi Calm Calm - N/A   Clear
3:21 PM 37.4 °F - 21.2 °F 52% 30.14 in 10.0 mi Calm Calm - N/A   Clear
3:41 PM 37.4 °F - 21.2 °F 52% 30.13 in 10.0 mi Calm Calm - N/A   Clear
4:01 PM 37.4 °F - 21.2 °F 52% 30.14 in 10.0 mi Calm Calm - N/A   Clear
4:21 PM 37.4 °F - 21.2 °F 52% 30.14 in 10.0 mi Calm Calm - N/A   Clear
4:41 PM 37.4 °F - 21.2 °F 52% 30.14 in 10.0 mi Calm Calm - N/A   Scattered Clouds
5:01 PM 37.4 °F 34.9 °F 23.0 °F 56% 30.14 in 10.0 mi WSW 3.5 mph - N/A   Scattered Clouds
5:21 PM 35.6 °F 32.8 °F 21.2 °F 56% 30.14 in 10.0 mi WSW 3.5 mph - N/A   Mostly Cloudy
5:41 PM 35.6 °F - 23.0 °F 60% 30.14 in 10.0 mi Calm Calm - N/A   Overcast
6:01 PM 35.6 °F - 23.0 °F 60% 30.14 in 10.0 mi Calm Calm - N/A   Overcast
6:21 PM 35.6 °F - 21.2 °F 56% 30.14 in 10.0 mi Calm Calm - N/A   Overcast
6:41 PM 35.6 °F - 23.0 °F 60% 30.14 in 10.0 mi Calm Calm - N/A   Mostly Cloudy
7:01 PM 35.6 °F - 24.8 °F 65% 30.14 in 10.0 mi Calm Calm - N/A   Mostly Cloudy
7:21 PM 35.6 °F - 24.8 °F 65% 30.15 in 10.0 mi Calm Calm - N/A   Overcast
7:41 PM 35.6 °F 32.8 °F 23.0 °F 60% 30.15 in 10.0 mi West 3.5 mph - N/A   Overcast
8:01 PM 35.6 °F - 24.8 °F 65% 30.16 in 10.0 mi Calm Calm - N/A   Overcast
8:21 PM 35.6 °F - 24.8 °F 65% 30.15 in 10.0 mi Calm Calm - N/A   Overcast
8:41 PM 35.6 °F 31.7 °F 23.0 °F 60% 30.16 in 10.0 mi ENE 4.6 mph - N/A   Overcast
9:01 PM 35.6 °F 32.8 °F 23.0 °F 60% 30.16 in 10.0 mi ENE 3.5 mph - N/A   Overcast
9:21 PM 35.6 °F - 24.8 °F 65% 30.16 in 10.0 mi Calm Calm - N/A   Overcast
9:41 PM 35.6 °F 31.7 °F 24.8 °F 65% 30.17 in 10.0 mi ENE 4.6 mph - N/A   Overcast
10:01 PM 35.6 °F 31.7 °F 24.8 °F 65% 30.17 in 10.0 mi East 4.6 mph - N/A   Overcast
10:21 PM 33.8 °F 29.6 °F 23.0 °F 65% 30.18 in 10.0 mi East 4.6 mph - N/A   Overcast
10:41 PM 33.8 °F 29.6 °F 23.0 °F 65% 30.19 in 10.0 mi East 4.6 mph - N/A   Overcast
11:01 PM 33.8 °F 28.6 °F 23.0 °F 65% 30.19 in 10.0 mi East 5.8 mph - N/A   Overcast
11:21 PM 33.8 °F 30.8 °F 23.0 °F 65% 30.19 in 10.0 mi ENE 3.5 mph - N/A   Overcast
11:41 PM 33.8 °F 30.8 °F 23.0 °F 65% 30.19 in 10.0 mi NE 3.5 mph - N/A   Overcast